STARLINK-1152, 45096

Orbit data source: Space-Track

STARLINK-1152, 45096 is a payload satellite owned by SpaceX/Seattle (US) in LEO that was launched on Wed, 29 Jan 2020 UTC via an FALCON 9 launch vehicle from the Air Force Eastern Test Range (AFETR). Payload-class satellites include a variety of spacecraft equipped with specific instruments for various scientific and technological missions. These include communications satellites like Starlink; space stations such as the ISS; scientific satellites like the Hubble; Earth observation satellites from companies like Planet Labs, Umbra, and HawkEye 360; GPS; miniature CubeSats for education and research; and military/defense satellites.

Loading next visibility...
Identifier
45096, 2020-006BE
Orbit
LEO
Last TLE update
21 hours ago
Origin
Manufacturer
SpaceX/Seattle
Mission
Partially operational Commercial Communications
Bus & Motor
STARLINK, Unknown motor
Mass
260 kg wet, ~248 kg dry
Launch date (UTC)
2020-01-29 (5 years ago)
Launch vehicle
FALCON 9
Launch site
Air Force Eastern Test Range (AFETR)
Object type
Payload
Rocket body
Debris
Shape & HBR
Box + 1 Pan, 8.86 m
Radar Cross Section
13.562 m², Large (>1 m²)

Expand to show TLE details & history

TLE from 21 hours ago
0 STARLINK-1152
1 45096U 20006BE  25128.39697236  .00033024  00000-0  18057-2 0  9990
2 45096  53.0529 174.2733 0004531 354.8317   5.2627 15.14002769291044
Epoch: 2025-05-08T09:31Z
Definitive object data (Epoch: 2025-05-08T09:31:38.411Z)
Latitude
-0.00011°
Longitude
164.89512°
Altitude
521.776 km
Speed
7.605 km/s
True Right ascension
11h 37m 05s
True Declination
0° 00' 00"
Sunlit
Object was in full shadow at TLE epoch
Visualization TLE readout
Latitude
33.58567°
Longitude
-48.89853°
Altitude
528.489 km
Speed
7.602 km/s
Apparent Right ascension
23h 50m 51s
Apparent Declination
-1° 55' 41"
Sunlit
Object is in daylight
Visualization observer readout
Local Sidereal Time
14:52:14
Azimuth
59.134° ENE
Elevation
-34.08°
Doppler factor
1
Orbital elements
Apogee altitude
527.407 km
Perigee altitude
521.152 km
Semi-major axis
6,902.417 km
Eccentricity
0.0004531
Inclination
53.0529°
RAAN
174.2733°
Arg. of periapsis
354.8317°
True anomaly
5.26747°
Mean anomaly
5.2627°
Eccentric anomaly
5.26508°
Mean motion
3.78479 °/min
BSTAR
0.0018057
Orbital period
95.12 mins
Loading maneuver chart data...
Loading SW <> Apogee altitude chart data...

STARLINK-1152 Visibility forecast

Observer location: undefined°, undefined°

Span
Click to sort rows by Start time (UTC) header in descending order
Start Az.
Max El. time (UTC)
Max El. Az.
Max El.
End time (UTC)
End Az.
4 mins2025-05-09 08:00:21.229Z309.53° NW2025-05-09 08:02:21.229Z340.661° N14.764°2025-05-09 08:04:21.229Z14.303° NNE
5 mins2025-05-09 11:21:21.229Z347.026° N2025-05-09 11:23:21.229Z36.919° NE25.382°2025-05-09 11:26:21.229Z88.103° E
5 mins2025-05-09 13:00:21.229Z284.594° WNW2025-05-09 13:02:21.229Z216.048° SW35.989°2025-05-09 13:05:21.229Z154.421° SSE
5 mins2025-05-10 04:28:21.229Z171.375° S2025-05-10 04:30:21.229Z124.253° SE24.371°2025-05-10 04:33:21.229Z73.052° E
6 mins2025-05-10 06:06:21.229Z262.723° W2025-05-10 06:09:21.229Z343.252° N32.781°2025-05-10 06:12:21.229Z36.972° NE
|